MST,Max TemperatureF,Mean TemperatureF,Min TemperatureF,Max Dew PointF,MeanDew PointF,Min DewpointF,Max Humidity, Mean Humidity, Min Humidity, Max Sea Level PressureIn, Mean Sea Level PressureIn, Min Sea Level PressureIn, Max VisibilityMiles, Mean VisibilityMiles, Min VisibilityMiles, Max Wind SpeedMPH, Mean Wind SpeedMPH, Max Gust SpeedMPH,PrecipitationIn, CloudCover, Events, WindDirDegrees
2011-10-1,69,54,39,50,45,41,89,64,39,30.37,30.12,30.07,10,9,4,18,4,23,0.11,5,Rain,46
2011-10-2,68,54,40,52,46,39,100,69,37,30.34,30.16,30.08,10,9,2,17,2,24,0.37,2,Rain-Thunderstorm,159
2011-10-3,69,54,39,49,44,38,100,70,39,30.15,30.06,29.96,10,10,9,16,3,22,0.02,2,Rain,165
2011-10-4,63,52,40,47,42,38,100,71,42,30.07,29.91,29.81,10,10,3,32,8,44,0.46,5,Rain-Thunderstorm,220
2011-10-5,51,45,39,43,40,35,100,81,61,30.05,29.90,29.64,10,10,6,28,12,35,0.25,7,Rain,217
2011-10-6,48,41,34,40,31,18,93,62,31,29.87,29.71,29.54,10,8,2,35,13,53,0.46,6,Rain,237
2011-10-7,47,37,27,31,27,18,92,64,36,30.09,29.96,29.84,10,10,8,14,2,16,0.01,4,Snow,198
2011-10-8,53,40,27,30,26,20,82,62,41,30.09,30.04,29.97,10,10,10,15,5,21,0.00,2,,60
2011-10-9,56,43,29,31,28,26,85,59,32,30.08,30.03,29.95,10,10,9,15,6,21,0.00,0,,82
2011-10-10,62,44,25,33,27,23,92,58,23,30.16,30.01,29.95,10,10,10,15,3,20,0.00,0,,201
2011-10-11,69,51,32,35,30,25,82,51,19,30.05,29.97,29.92,10,10,10,15,4,24,0.00,0,,274
2011-10-12,68,49,30,38,30,27,92,58,24,30.14,30.07,30.00,10,10,10,17,5,23,0.00,0,,66
2011-10-13,73,51,29,33,26,18,85,50,14,30.15,30.08,30.01,10,10,10,12,2,15,0.00,0,,66
2011-10-14,75,53,31,32,27,22,78,46,14,30.14,30.06,30.02,10,10,10,13,2,17,0.00,0,,60
2011-10-15,74,53,32,33,26,21,82,48,14,30.15,30.07,30.02,10,10,10,21,3,26,0.00,0,,200
2011-10-16,72,54,35,32,26,23,70,43,16,30.30,30.07,30.02,10,10,10,21,5,26,0.00,0,,240
2011-10-17,73,54,35,34,28,24,76,47,17,30.17,30.09,30.02,10,10,10,15,4,22,0.00,0,,254
2011-10-18,66,47,28,25,20,16,78,47,16,30.21,30.17,30.14,10,10,10,18,5,26,0.00,0,,79
2011-10-19,70,48,26,24,21,18,75,45,14,30.16,30.06,29.98,10,10,10,18,5,24,0.00,0,,218
2011-10-20,68,48,28,30,23,19,75,46,16,30.20,30.09,30.01,10,10,10,20,5,25,0.00,0,,214
2011-10-21,67,48,28,30,22,17,75,46,16,30.25,30.19,30.14,10,10,10,16,4,22,0.00,0,,231
2011-10-22,70,49,28,27,21,15,75,45,14,30.29,30.20,30.14,10,10,10,10,2,14,0.00,0,,77
2011-10-23,70,49,28,27,23,21,75,46,16,30.27,30.16,30.10,10,10,10,12,2,16,0.00,0,,74
2011-10-24,68,49,29,29,24,21,78,48,17,30.27,30.10,30.00,10,10,10,24,6,30,0.00,3,,235
2011-10-25,64,54,43,45,39,28,89,61,32,30.08,29.96,29.85,10,10,6,28,9,38,0.03,4,Rain,243
2011-10-26,49,41,33,47,39,25,93,84,75,30.07,29.92,29.78,10,9,2,25,11,33,0.34,6,Rain,132
2011-10-27,50,39,27,28,24,20,85,62,39,30.18,30.07,29.98,10,10,10,30,8,37,0.00,0,,67
2011-10-28,55,41,26,24,21,17,92,58,24,30.27,30.21,30.14,10,10,10,16,5,23,0.00,0,,83
2011-10-29,67,46,24,31,22,11,88,50,12,30.27,30.17,30.08,10,10,10,16,2,22,0.00,0,,303
2011-10-30,65,45,25,27,23,19,92,56,19,30.30,30.21,30.14,10,10,9,13,3,16,0.00,0,,75
2011-10-31,65,47,28,29,22,16,78,47,15,30.21,30.10,30.02,10,10,10,16,4,22,0.00,0,,210